When you browse on this site, cookies collect data to enhance your experience and personalize the content and advertising you see.
Visit our Privacy Policy to learn more. By continuing to use the site, you agree to this use of cookies and data.
  • In Slovakia
  • List of Countries
  • For 7 days
  • Water Temperature
  • Weather Map
  • Weather Widgets
  • user-avatar
    Login

    Hourly Weather Inverness

    Today, 29 May, Friday

    Time Temperature Precipitation Wind Pressure Humidity
    00:00 +13°C° 0 mm 1 mps 767 mmHg 95%
    01:00 +13°C° 0 mm 1 mps 767 mmHg 95%
    02:00 +13°C° 0 mm 1 mps 767 mmHg 95%
    03:00 +12°C° 0 mm 0 mps 767 mmHg 96%
    04:00 +13°C° 0 mm 0 mps 767 mmHg 93%
    05:00 +15°C° 0 mm 1 mps 767 mmHg 90%
    06:00 +16°C° 0 mm 1 mps 767 mmHg 87%
    07:00 +19°C° 0 mm 1 mps 766 mmHg 78%
    08:00 +21°C° 0 mm 1 mps 766 mmHg 69%
    09:00 +23°C° 0 mm 1 mps 766 mmHg 60%
    10:00 +24°C° 0 mm 1 mps 766 mmHg 57%
    11:00 +25°C° 0 mm 2 mps 766 mmHg 54%
    12:00 +26°C° 0 mm 2 mps 765 mmHg 51%
    13:00 +26°C° 0 mm 2 mps 765 mmHg 52%
    14:00 +26°C° 0 mm 2 mps 765 mmHg 53%
    15:00 +26°C° 0 mm 2 mps 764 mmHg 54%
    16:00 +25°C° 0 mm 2 mps 764 mmHg 58%
    17:00 +25°C° 0 mm 2 mps 764 mmHg 61%
    18:00 +24°C° 0 mm 2 mps 764 mmHg 64%
    19:00 +21°C° 0 mm 2 mps 764 mmHg 71%
    20:00 +21°C° 0 mm 1 mps 764 mmHg 78%
    21:00 +19°C° 0 mm 1 mps 764 mmHg 85%
    22:00 +18°C° 0 mm 1 mps 764 mmHg 87%
    23:00 +18°C° 0 mm 1 mps 764 mmHg 89%

    Tomorrow, 30 May, Saturday

    Time Temperature Precipitation Wind Pressure Humidity
    00:00 +16°C° 0 mm 1 mps 764 mmHg 91%
    01:00 +16°C° 0 mm 1 mps 764 mmHg 91%
    02:00 +16°C° 0 mm 1 mps 764 mmHg 91%
    03:00 +15°C° 0 mm 1 mps 764 mmHg 92%
    04:00 +16°C° 0 mm 1 mps 764 mmHg 88%
    05:00 +18°C° 0 mm 1 mps 765 mmHg 84%
    06:00 +19°C° 0 mm 1 mps 765 mmHg 80%
    07:00 +20°C° 0 mm 1 mps 765 mmHg 71%
    08:00 +22°C° 0 mm 1 mps 765 mmHg 62%
    09:00 +23°C° 0 mm 1 mps 765 mmHg 53%
    10:00 +24°C° 0 mm 1 mps 765 mmHg 51%
    11:00 +25°C° 0 mm 2 mps 765 mmHg 50%
    12:00 +26°C° 0 mm 2 mps 765 mmHg 48%
    13:00 +25°C° 0 mm 2 mps 765 mmHg 50%
    14:00 +25°C° 0 mm 2 mps 765 mmHg 53%
    15:00 +25°C° 0 mm 3 mps 765 mmHg 55%
    16:00 +25°C° 0 mm 2 mps 765 mmHg 57%
    17:00 +24°C° 0 mm 2 mps 765 mmHg 59%
    18:00 +23°C° 0 mm 2 mps 765 mmHg 61%
    19:00 +20°C° 0 mm 2 mps 765 mmHg 67%
    20:00 +19°C° 0 mm 1 mps 765 mmHg 73%
    21:00 +16°C° 0 mm 1 mps 765 mmHg 79%
    22:00 +15°C° 0 mm 1 mps 766 mmHg 80%
    23:00 +14°C° 0 mm 1 mps 766 mmHg 80%

    Day after tomorrow, 31 May, Sunday

    Time Temperature Precipitation Wind Pressure Humidity
    00:00 +13°C° 0 mm 1 mps 766 mmHg 81%
    01:00 +12°C° 0 mm 1 mps 766 mmHg 78%
    02:00 +12°C° 0 mm 1 mps 766 mmHg 76%
    03:00 +12°C° 0 mm 1 mps 766 mmHg 74%
    04:00 +12°C° 0 mm 1 mps 766 mmHg 72%
    05:00 +13°C° 0 mm 1 mps 766 mmHg 70%
    06:00 +14°C° 0 mm 1 mps 766 mmHg 68%
    07:00 +16°C° 0 mm 1 mps 767 mmHg 63%
    08:00 +18°C° 0 mm 1 mps 767 mmHg 59%
    09:00 +20°C° 0 mm 1 mps 767 mmHg 54%
    10:00 +21°C° 0 mm 1 mps 767 mmHg 52%
    11:00 +21°C° 0 mm 2 mps 767 mmHg 50%
    12:00 +23°C° 0 mm 2 mps 767 mmHg 47%
    13:00 +23°C° 0 mm 2 mps 767 mmHg 47%
    14:00 +23°C° 0 mm 2 mps 767 mmHg 47%
    15:00 +23°C° 0 mm 2 mps 767 mmHg 47%
    16:00 +23°C° 0 mm 2 mps 767 mmHg 52%
    17:00 +21°C° 0 mm 2 mps 767 mmHg 57%
    18:00 +21°C° 0 mm 1 mps 767 mmHg 62%
    19:00 +20°C° 0 mm 1 mps 767 mmHg 68%
    20:00 +18°C° 0 mm 1 mps 767 mmHg 75%
    21:00 +16°C° 0 mm 1 mps 767 mmHg 81%
    22:00 +15°C° 0 mm 1 mps 767 mmHg 83%
    23:00 +15°C° 0 mm 1 mps 767 mmHg 85%

    1 June, Monday

    Time Temperature Precipitation Wind Pressure Humidity
    00:00 +14°C° 0 mm 1 mps 767 mmHg 87%
    01:00 +14°C° 0 mm 1 mps 767 mmHg 87%
    02:00 +14°C° 0 mm 1 mps 767 mmHg 87%
    03:00 +14°C° 0 mm 1 mps 766 mmHg 87%
    04:00 +14°C° 0 mm 1 mps 767 mmHg 84%
    05:00 +15°C° 0 mm 1 mps 767 mmHg 82%
    06:00 +16°C° 0 mm 1 mps 767 mmHg 80%
    07:00 +18°C° 0.1 mm 1 mps 767 mmHg 76%
    08:00 +19°C° 0.1 mm 1 mps 767 mmHg 72%
    09:00 +21°C° 0.1 mm 1 mps 767 mmHg 69%
    10:00 +21°C° 0.2 mm 1 mps 767 mmHg 66%
    11:00 +22°C° 0.2 mm 1 mps 767 mmHg 63%
    12:00 +23°C° 0.2 mm 1 mps 767 mmHg 60%
    13:00 +21°C° 0.3 mm 2 mps 766 mmHg 61%
    14:00 +21°C° 0.3 mm 2 mps 766 mmHg 62%
    15:00 +21°C° 0.3 mm 2 mps 766 mmHg 63%
    16:00 +20°C° 0.3 mm 2 mps 766 mmHg 68%
    17:00 +19°C° 0.3 mm 2 mps 766 mmHg 72%
    18:00 +18°C° 0.3 mm 2 mps 766 mmHg 77%
    19:00 +17°C° 0.1 mm 2 mps 766 mmHg 81%
    20:00 +16°C° 0.1 mm 1 mps 766 mmHg 85%
    21:00 +14°C° 0.1 mm 1 mps 766 mmHg 89%
    22:00 +14°C° 0.1 mm 1 mps 766 mmHg 89%
    23:00 +13°C° 0.1 mm 0 mps 766 mmHg 89%

    2 June, Tuesday

    Time Temperature Precipitation Wind Pressure Humidity
    00:00 +13°C° 0.1 mm 0 mps 766 mmHg 90%
    01:00 +12°C° 0 mm 0 mps 766 mmHg 91%
    02:00 +12°C° 0 mm 0 mps 766 mmHg 92%
    03:00 +12°C° 0 mm 0 mps 765 mmHg 92%
    04:00 +12°C° 0.1 mm 0 mps 765 mmHg 91%
    05:00 +13°C° 0.1 mm 0 mps 765 mmHg 90%
    06:00 +13°C° 0.1 mm 0 mps 765 mmHg 89%
    07:00 +15°C° 0.2 mm 1 mps 765 mmHg 87%
    08:00 +16°C° 0.2 mm 1 mps 765 mmHg 85%
    09:00 +16°C° 0.2 mm 1 mps 765 mmHg 83%
    10:00 +16°C° 0.4 mm 2 mps 764 mmHg 84%
    11:00 +16°C° 0.4 mm 2 mps 764 mmHg 86%
    12:00 +16°C° 0.4 mm 2 mps 764 mmHg 87%
    13:00 +15°C° 0.4 mm 2 mps 764 mmHg 90%
    14:00 +15°C° 0.4 mm 2 mps 764 mmHg 92%
    15:00 +14°C° 0.4 mm 2 mps 763 mmHg 95%
    16:00 +14°C° 0.3 mm 2 mps 763 mmHg 95%
    17:00 +12°C° 0.3 mm 3 mps 763 mmHg 96%
    18:00 +12°C° 0.3 mm 3 mps 763 mmHg 97%
    19:00 +12°C° 0.2 mm 3 mps 763 mmHg 97%
    20:00 +11°C° 0.2 mm 3 mps 763 mmHg 97%
    21:00 +11°C° 0.2 mm 3 mps 763 mmHg 97%
    22:00 +11°C° 0.1 mm 3 mps 763 mmHg 97%
    23:00 +10°C° 0.1 mm 3 mps 763 mmHg 97%

    3 June, Wednesday

    Time Temperature Precipitation Wind Pressure Humidity
    00:00 +10°C° 0.1 mm 3 mps 763 mmHg 97%
    01:00 +10°C° 0.1 mm 3 mps 763 mmHg 97%
    02:00 +9°C° 0.1 mm 3 mps 762 mmHg 97%
    03:00 +9°C° 0.1 mm 2 mps 762 mmHg 97%
    04:00 +9°C° 0 mm 2 mps 762 mmHg 96%
    05:00 +9°C° 0 mm 2 mps 762 mmHg 95%
    06:00 +9°C° 0 mm 2 mps 762 mmHg 94%
    07:00 +10°C° 0 mm 2 mps 762 mmHg 91%
    08:00 +10°C° 0 mm 2 mps 761 mmHg 88%
    09:00 +12°C° 0 mm 1 mps 761 mmHg 85%
    10:00 +13°C° 0 mm 1 mps 761 mmHg 79%
    11:00 +15°C° 0 mm 1 mps 760 mmHg 73%
    12:00 +16°C° 0 mm 1 mps 760 mmHg 67%
    13:00 +18°C° 0 mm 1 mps 759 mmHg 67%
    14:00 +17°C° 0 mm 2 mps 759 mmHg 67%
    15:00 +17°C° 0 mm 2 mps 758 mmHg 66%
    16:00 +16°C° 0.1 mm 2 mps 758 mmHg 66%
    17:00 +16°C° 0.1 mm 2 mps 757 mmHg 66%
    18:00 +14°C° 0.1 mm 3 mps 756 mmHg 66%
    19:00 +13°C° 0 mm 2 mps 756 mmHg 69%
    20:00 +12°C° 0 mm 2 mps 755 mmHg 73%
    21:00 +10°C° 0 mm 1 mps 755 mmHg 76%
    22:00 +9°C° 0 mm 2 mps 754 mmHg 77%
    23:00 +9°C° 0 mm 3 mps 753 mmHg 78%
    Show more